Starlink 1957

decayed
NORAD ID: 47558 Int'l Des: 2021-009 Owner: SPXS Country: US Constellation: starlink
LEOCIRCULAR
グループ

Starlink 1957について

説明を読み込み中...

高度履歴

Altitude vs Time

uPlot chart will show altitude changes over time

軌道要素

1 47558U 21009L 25161.34818896 .10714600 12392-4 62985-3 0 9996
2 47558 53.0308 105.7462 0003661 253.3945 249.1172 16.41714577241165
Epoch: Jun 10, 2025 • Age: 7172 hours

現在のステータス

Position data unavailable
打ち上げ日 Feb 4, 2021
運用期間 5.1 years
落下予定日 Jun 10, 2025
タイプ internet

技術仕様

分類 Payload
質量 260.00 kg
乾燥質量 248.00 kg
総質量 260.00 kg
長さ 0.20 m
直径 2.80 m
スパン 9.00 m
形状 Box + pan
製造者 SPXS
バスタイプ Starlink
フェーズステータス Unknown Transfer Status
所有者/国 SPXS/US

大規模コンステレーション

Loading constellations...